This demonstration page uses our WeatherBlox Daily Observations layout. Learn more.

Left ArrowRight Arrow

Hourly Observations for December 14, 2021

Temp ( °F °C ) Dew Point ( °F °C ) Humidity (%) Winds ( mph kmh ) Pressure ( in mb ) Visibility ( mi km ) Precip ( " mm )
12:51 am 00:51 Clear 56 13.3 32 0 40 40 ESE 12 19 30.04 1017 10 16 0.00 0.00
1:51 am 01:51 Partly Cloudy 58 14.4 32 0 38 38 ESE 14 22 30.02 1017 10 16 0.00 0.00
2:51 am 02:51 Cloudy 59 15 33 0.6 38 38 undefined N/A 30.03 1017 10 16 0.00 0.00
3:51 am 03:51 Cloudy 53 11.7 33 0.6 47 47 NNW 7 11 30.04 1017 10 16 0.00 0.00
4:51 am 04:51 Cloudy 53 11.7 34 1.1 48 48 Calm 30.05 1018 10 16 0.00 0.00
5:51 am 05:51 Cloudy 50 10 34 1.1 54 54 Calm 30.09 1019 10 16 0.00 0.00
6:51 am 06:51 Cloudy 50 10 36 2.2 59 59 W 5 7 30.09 1019 10 16 0.00 0.00
7:51 am 07:51 Cloudy 50 10 42 5.6 74 74 WNW 3 6 30.11 1020 10 16 0.00 0.00
8:51 am 08:51 Cloudy 52 11.1 41 5 66 66 Calm 30.09 1019 10 16 0.00 0.00
9:51 am 09:51 Mostly Sunny 58 14.4 41 5 53 53 SE 8 13 30.08 1019 10 16 0.00 0.00
10:51 am 10:51 Mostly Cloudy 63 17.2 37 2.8 38 38 ESE 13 20 30.04 1017 10 16 0.00 0.00
11:51 am 11:51 Mostly Sunny 67 19.4 37 2.8 33 33 SSE 15 24 30.00 1016 10 16 0.00 0.00
12:51 pm 12:51 Mostly Cloudy 66 18.9 37 2.8 34 34 ESE 9 15 29.96 1015 10 16 0.00 0.00
1:51 pm 13:51 Mostly Cloudy 67 19.4 36 2.2 32 32 E 9 15 29.91 1013 10 16 0.00 0.00
2:51 pm 14:51 Cloudy 66 18.9 39 3.9 37 37 W 7 11 29.88 1012 10 16 0.00 0.00
3:51 pm 15:51 Cloudy 55 12.8 50 10 83 83 WNW 16 26 29.93 1013 10 16 0.00 0.00
4:51 pm 16:51 Cloudy 53 11.7 51 10.6 93 93 NW 5 7 29.93 1014 10 16 0.00 0.00
5:51 pm 17:51 Cloudy 52 11.1 51 10.6 97 97 Calm 29.93 1014 10 16 0.00 0.00
6:51 pm 18:51 Mostly Cloudy 51 10.6 50 10 96 96 ESE 5 7 29.91 1013 10 16 0.00 0.00
7:51 pm 19:51 Partly Cloudy 50 10 49 9.4 96 96 NW 6 9 29.92 1013 10 16 0.00 0.00
8:51 pm 20:51 Mostly Clear 50 10 48 8.9 93 93 NNE 5 7 29.91 1013 10 16 0.00 0.00
9:51 pm 21:51 Partly Cloudy 52 11.1 47 8.3 83 83 SE 9 15 29.87 1012 10 16 0.00 0.00
10:51 pm 22:51 Mostly Clear 54 12.2 46 7.8 75 75 ESE 12 19 29.85 1011 10 16 0.00 0.00
11:51 pm 23:51 Clear 58 14.4 46 7.8 65 65 SSE 14 22 29.81 1009 10 16 0.00 0.00

Powered by AerisWeather